QPF
0.00 0.00 0.01 0.03 0.06 0.07 0.08 0.09 0.09 0.04 0.02 0.02 0.01 0.00 0.00 0.00 0.00 0.00 0.00 0.00 0.00 0.00 0.00 0.00 0.00 0.00 0.00 0.00 0.00 0.00 0.00 0.00 0.00 0.00 0.00 0.00 0.00 0.00 0.00 0.00 0.00 0.00 0.00 0.00 0.00 0.00 0.00 0.00 0.00
0.00 0.00 0.02 0.03 0.06 0.10 0.06 0.04 0.04 0.02 0.01 0.02 0.01 0.00 0.00 0.00 0.00 0.00 0.00 0.00 0.00 0.00 0.00 0.00 0.00 0.00 0.00 0.00 0.00 0.00 0.00 0.00 0.00 0.00 0.00 0.00 0.00 0.00 0.00 0.00 0.00 0.00 0.00 0.00 0.00 0.00 0.00 0.00 0.00
0.00 0.00 0.01 0.02 0.08 0.10 0.03 0.02 0.02 0.02 0.02 0.03 0.03 0.00 0.00 0.00 0.00 0.00 0.00 0.00 0.00 0.00 0.00 0.00 0.00 0.00 0.00 0.00 0.00 0.00 0.00 0.00 0.00 0.00 0.00 0.00 0.00 0.00 0.00 0.00 0.00 0.00 0.00 0.00 0.00 0.00 0.00 0.00 0.00
0.00 0.00 0.00 0.02 0.04 0.03 0.02 0.02 0.02 0.02 0.01 0.01 0.01 0.01 0.00 0.00 0.00 0.00 0.00 0.00 0.00 0.00 0.00 0.00 0.00 0.00 0.00 0.00 0.00 0.00 0.00 0.00 0.00 0.00 0.00 0.00 0.00 0.00 0.00 0.00 0.00 0.00 0.00 0.00 0.00 0.00 0.00 0.00 0.00
0.00 0.00 0.00 0.01 0.01 0.01 0.01 0.02 0.03 0.03 0.01 0.01 0.01 0.01 0.00 0.00 0.00 0.00 0.00 0.00 0.00 0.00 0.00 0.00 0.00 0.00 0.00 0.00 0.00 0.00 0.00 0.00 0.00 0.00 0.00 0.00 0.00 0.00 0.00 0.00 0.00 0.00 0.00 0.00 0.00 0.00 0.00 0.00 0.00
0.00 0.00 0.01 0.01 0.00 0.00 0.00 0.01 0.02 0.01 0.00 0.00 0.01 0.02 0.01 0.00 0.00 0.00 0.00 0.00 0.00 0.00 0.00 0.00 0.00 0.00 0.00 0.00 0.00 0.00 0.00 0.00 0.00 0.00 0.00 0.00 0.00 0.00 0.00 0.00 0.00 0.00 0.00 0.00 0.00 0.00 0.00 0.00 0.00
0.00 0.00 0.00 0.00 0.00 0.00 0.00 0.00 0.00 0.00 0.00 0.01 0.01 0.03 0.02 0.01 0.01 0.01 0.00 0.00 0.00 0.00 0.00 0.00 0.00 0.00 0.00 0.00 0.00 0.00 0.00 0.00 0.00 0.00 0.00 0.00 0.00 0.00 0.00 0.00 0.00 0.00 0.00 0.00 0.00 0.00 0.00 0.00 0.00
0.00 0.00 0.00 0.00 0.00 0.00 0.00 0.00 0.00 0.00 0.01 0.01 0.02 0.04 0.04 0.02 0.01 0.00 0.01 0.01 0.01 0.00 0.00 0.00 0.00 0.00 0.00 0.00 0.00 0.00 0.00 0.00 0.00 0.00 0.00 0.00 0.00 0.00 0.00 0.00 0.01 0.01 0.02 0.02 0.01 0.01 0.01 0.01 0.00
0.00 0.00 0.00 0.00 0.00 0.00 0.00 0.00 0.00 0.01 0.02 0.02 0.03 0.05 0.06 0.02 0.02 0.01 0.02 0.03 0.03 0.01 0.01 0.00 0.00 0.00 0.00 0.00 0.00 0.00 0.00 0.00 0.00 0.00 0.00 0.00 0.00 0.00 0.01 0.02 0.03 0.03 0.03 0.03 0.02 0.02 0.02 0.01 0.01
0.00 0.00 0.00 0.00 0.00 0.00 0.00 0.00 0.00 0.01 0.03 0.02 0.03 0.05 0.06 0.05 0.08 0.08 0.07 0.11 0.12 0.05 0.02 0.02 0.01 0.00 0.00 0.00 0.00 0.00 0.00 0.01 0.01 0.00 0.01 0.01 0.01 0.01 0.01 0.03 0.05 0.07 0.08 0.08 0.06 0.05 0.04 0.03 0.02
0.00 0.00 0.00 0.00 0.00 0.00 0.00 0.00 0.00 0.00 0.01 0.01 0.02 0.05 0.07 0.07 0.08 0.13 0.16 0.20 0.16 0.08 0.04 0.03 0.02 0.01 0.01 0.01 0.01 0.01 0.02 0.03 0.03 0.02 0.03 0.02 0.02 0.02 0.02 0.03 0.06 0.09 0.12 0.11 0.12 0.11 0.09 0.06 0.04
0.00 0.00 0.00 0.00 0.00 0.00 0.00 0.00 0.00 0.00 0.01 0.03 0.03 0.06 0.14 0.18 0.14 0.12 0.20 0.19 0.14 0.11 0.09 0.06 0.05 0.05 0.05 0.05 0.05 0.05 0.05 0.06 0.05 0.05 0.05 0.04 0.03 0.03 0.03 0.04 0.06 0.12 0.16 0.19 0.18 0.18 0.16 0.14 0.11
0.00 0.00 0.00 0.00 0.00 0.00 0.00 0.00 0.00 0.01 0.01 0.01 0.03 0.05 0.13 0.24 0.37 0.36 0.31 0.26 0.21 0.17 0.14 0.13 0.13 0.11 0.12 0.12 0.10 0.08 0.08 0.07 0.07 0.09 0.07 0.06 0.07 0.07 0.08 0.07 0.09 0.14 0.18 0.23 0.25 0.26 0.25 0.23 0.23
0.00 0.00 0.00 0.00 0.00 0.00 0.00 0.00 0.00 0.02 0.02 0.01 0.02 0.05 0.11 0.19 0.21 0.24 0.25 0.23 0.22 0.20 0.18 0.21 0.20 0.19 0.18 0.16 0.14 0.10 0.11 0.11 0.10 0.11 0.13 0.12 0.11 0.11 0.11 0.09 0.09 0.11 0.12 0.17 0.22 0.24 0.27 0.30 0.29
0.00 0.00 0.00 0.00 0.00 0.00 0.00 0.01 0.01 0.02 0.02 0.02 0.03 0.04 0.06 0.11 0.17 0.13 0.12 0.14 0.18 0.19 0.19 0.16 0.16 0.19 0.18 0.17 0.16 0.14 0.14 0.15 0.17 0.18 0.18 0.15 0.17 0.20 0.15 0.13 0.11 0.08 0.09 0.11 0.14 0.16 0.20 0.25 0.29
0.00 0.00 0.00 0.00 0.00 0.00 0.00 0.02 0.03 0.04 0.05 0.03 0.02 0.02 0.03 0.05 0.07 0.08 0.10 0.11 0.14 0.15 0.15 0.14 0.14 0.16 0.17 0.16 0.18 0.18 0.18 0.20 0.19 0.18 0.18 0.19 0.19 0.20 0.17 0.16 0.12 0.08 0.06 0.08 0.11 0.14 0.16 0.22 0.28
0.00 0.00 0.00 0.00 0.00 0.01 0.01 0.03 0.05 0.06 0.06 0.05 0.03 0.02 0.02 0.03 0.04 0.05 0.06 0.06 0.06 0.07 0.09 0.09 0.10 0.13 0.13 0.12 0.11 0.11 0.13 0.14 0.15 0.15 0.14 0.11 0.09 0.10 0.11 0.09 0.06 0.04 0.05 0.07 0.08 0.10 0.12 0.16 0.18
0.00 0.00 0.01 0.02 0.02 0.03 0.05 0.06 0.09 0.11 0.12 0.12 0.09 0.04 0.02 0.02 0.02 0.03 0.03 0.03 0.03 0.04 0.05 0.05 0.05 0.05 0.05 0.05 0.05 0.05 0.06 0.08 0.09 0.11 0.11 0.09 0.08 0.08 0.07 0.05 0.04 0.04 0.05 0.06 0.07 0.10 0.11 0.11 0.14
0.01 0.02 0.04 0.05 0.03 0.05 0.11 0.13 0.17 0.23 0.22 0.18 0.16 0.12 0.06 0.02 0.01 0.01 0.01 0.01 0.02 0.03 0.03 0.03 0.03 0.02 0.03 0.03 0.02 0.02 0.02 0.03 0.05 0.05 0.04 0.03 0.04 0.03 0.02 0.02 0.02 0.03 0.04 0.05 0.06 0.07 0.07 0.08 0.11
0.02 0.03 0.05 0.05 0.03 0.04 0.11 0.21 0.29 0.27 0.25 0.23 0.17 0.11 0.07 0.03 0.01 0.00 0.00 0.00 0.00 0.01 0.01 0.01 0.01 0.02 0.02 0.01 0.01 0.01 0.02 0.02 0.02 0.01 0.01 0.01 0.01 0.02 0.01 0.01 0.01 0.02 0.03 0.03 0.04 0.06 0.07 0.08 0.09
0.02 0.03 0.04 0.03 0.05 0.06 0.08 0.16 0.34 0.39 0.34 0.24 0.19 0.13 0.06 0.03 0.02 0.01 0.00 0.00 0.00 0.00 0.00 0.00 0.00 0.01 0.01 0.01 0.01 0.01 0.01 0.01 0.01 0.02 0.02 0.01 0.01 0.01 0.01 0.01 0.02 0.02 0.02 0.02 0.02 0.05 0.06 0.06 0.08
0.02 0.02 0.02 0.02 0.05 0.11 0.14 0.21 0.33 0.44 0.50 0.36 0.25 0.19 0.10 0.05 0.02 0.01 0.00 0.00 0.00 0.00 0.00 0.00 0.00 0.01 0.01 0.01 0.01 0.01 0.01 0.01 0.01 0.01 0.01 0.01 0.01 0.01 0.01 0.01 0.01 0.01 0.02 0.01 0.01 0.03 0.06 0.06 0.09
0.02 0.02 0.02 0.03 0.04 0.08 0.15 0.18 0.30 0.38 0.51 0.37 0.20 0.14 0.07 0.04 0.03 0.01 0.00 0.00 0.00 0.00 0.00 0.00 0.00 0.01 0.01 0.01 0.02 0.01 0.01 0.01 0.01 0.01 0.01 0.01 0.01 0.01 0.01 0.01 0.01 0.01 0.01 0.01 0.01 0.02 0.03 0.05 0.07
0.03 0.04 0.04 0.05 0.04 0.05 0.07 0.12 0.22 0.23 0.22 0.16 0.11 0.13 0.05 0.02 0.01 0.00 0.00 0.00 0.00 0.00 0.00 0.00 0.01 0.01 0.01 0.01 0.01 0.01 0.01 0.01 0.01 0.00 0.00 0.01 0.01 0.01 0.01 0.01 0.01 0.01 0.01 0.01 0.00 0.01 0.01 0.03 0.05
0.03 0.03 0.04 0.06 0.07 0.08 0.06 0.15 0.25 0.20 0.12 0.11 0.05 0.03 0.01 0.00 0.00 0.00 0.00 0.00 0.00 0.00 0.00 0.00 0.00 0.00 0.00 0.00 0.01 0.01 0.00 0.01 0.01 0.00 0.00 0.01 0.01 0.01 0.01 0.01 0.01 0.01 0.01 0.01 0.01 0.01 0.01 0.01 0.02
0.01 0.02 0.04 0.06 0.08 0.17 0.17 0.25 0.31 0.14 0.07 0.05 0.02 0.01 0.00 0.00 0.00 0.00 0.00 0.00 0.00 0.00 0.00 0.00 0.00 0.00 0.00 0.00 0.00 0.00 0.00 0.00 0.00 0.00 0.00 0.00 0.00 0.00 0.00 0.01 0.01 0.01 0.01 0.01 0.01 0.01 0.01 0.01 0.01
0.01 0.01 0.01 0.02 0.04 0.10 0.18 0.22 0.18 0.07 0.03 0.02 0.01 0.00 0.00 0.00 0.00 0.00 0.00 0.00 0.00 0.00 0.00 0.00 0.00 0.00 0.00 0.00 0.00 0.00 0.00 0.00 0.00 0.00 0.00 0.00 0.00 0.00 0.00 0.00 0.00 0.01 0.01 0.01 0.01 0.01 0.01 0.01 0.01
0.00 0.00 0.00 0.00 0.01 0.04 0.12 0.16 0.09 0.02 0.01 0.00 0.00 0.00 0.00 0.00 0.00 0.00 0.00 0.00 0.00 0.00 0.00 0.00 0.00 0.00 0.00 0.00 0.00 0.00 0.00 0.00 0.00 0.00 0.00 0.00 0.00 0.00 0.00 0.00 0.00 0.00 0.01 0.01 0.01 0.01 0.01 0.01 0.01
0.00 0.00 0.00 0.00 0.00 0.01 0.04 0.06 0.01 0.00 0.00 0.00 0.00 0.00 0.00 0.00 0.00 0.00 0.00 0.00 0.00 0.00 0.00 0.00 0.00 0.00 0.00 0.00 0.00 0.00 0.00 0.00 0.00 0.00 0.00 0.00 0.00 0.00 0.00 0.00 0.00 0.00 0.00 0.01 0.01 0.01 0.01 0.01 0.01
0.00 0.00 0.00 0.00 0.00 0.00 0.01 0.01 0.00 0.00 0.00 0.00 0.00 0.00 0.00 0.00 0.00 0.00 0.00 0.00 0.00 0.00 0.00 0.00 0.00 0.00 0.00 0.00 0.00 0.00 0.00 0.00 0.00 0.00 0.00 0.00 0.00 0.00 0.00 0.00 0.01 0.01 0.01 0.01 0.02 0.02 0.01 0.01 0.01
MSLP
1011.61 1012.66 1013.75 1014.67 1015.23 1015.29 1014.81 1013.86 1012.57 1011.17 1009.89 1008.92 1008.39 1008.31 1008.62 1009.18 1009.81 1010.35 1010.70 1010.82 1010.75 1010.58 1010.42 1010.38 1010.51 1010.83 1011.28 1011.81 1012.32 1012.75 1013.08 1013.31 1013.47 1013.61 1013.77 1013.98 1014.23 1014.50 1014.76 1014.97 1015.11 1015.18 1015.19 1015.18 1015.17 1015.20 1015.28 1015.40 1015.54
1012.01 1013.16 1014.23 1015.01 1015.32 1015.08 1014.29 1013.07 1011.59 1010.09 1008.81 1007.93 1007.52 1007.57 1008.00 1008.64 1009.31 1009.88 1010.24 1010.39 1010.37 1010.27 1010.20 1010.25 1010.47 1010.84 1011.33 1011.86 1012.37 1012.79 1013.10 1013.33 1013.50 1013.66 1013.84 1014.07 1014.33 1014.60 1014.84 1015.02 1015.13 1015.18 1015.18 1015.17 1015.17 1015.22 1015.31 1015.43 1015.57
1012.45 1013.64 1014.63 1015.22 1015.27 1014.74 1013.68 1012.24 1010.65 1009.14 1007.94 1007.18 1006.93 1007.12 1007.65 1008.35 1009.05 1009.60 1009.96 1010.11 1010.12 1010.08 1010.09 1010.23 1010.52 1010.95 1011.46 1011.99 1012.47 1012.85 1013.14 1013.35 1013.51 1013.68 1013.87 1014.11 1014.36 1014.62 1014.84 1015.00 1015.10 1015.14 1015.15 1015.16 1015.19 1015.26 1015.37 1015.50 1015.64
1012.92 1014.09 1014.95 1015.32 1015.12 1014.33 1013.06 1011.50 1009.88 1008.44 1007.38 1006.79 1006.70 1007.03 1007.64 1008.36 1009.03 1009.55 1009.87 1010.01 1010.04 1010.05 1010.14 1010.35 1010.70 1011.16 1011.68 1012.18 1012.61 1012.95 1013.19 1013.37 1013.52 1013.68 1013.87 1014.10 1014.35 1014.59 1014.79 1014.93 1015.02 1015.07 1015.10 1015.14 1015.22 1015.33 1015.48 1015.63 1015.77
1013.40 1014.49 1015.17 1015.32 1014.88 1013.90 1012.51 1010.91 1009.35 1008.05 1007.16 1006.76 1006.82 1007.26 1007.90 1008.61 1009.23 1009.68 1009.95 1010.07 1010.11 1010.17 1010.32 1010.59 1010.99 1011.46 1011.95 1012.40 1012.77 1013.05 1013.24 1013.38 1013.51 1013.67 1013.86 1014.08 1014.32 1014.54 1014.71 1014.84 1014.92 1014.98 1015.04 1015.13 1015.26 1015.42 1015.60 1015.78 1015.93
1013.85 1014.78 1015.27 1015.20 1014.57 1013.46 1012.02 1010.48 1009.05 1007.93 1007.24 1007.02 1007.21 1007.70 1008.34 1008.99 1009.53 1009.90 1010.11 1010.21 1010.27 1010.38 1010.59 1010.91 1011.32 1011.78 1012.22 1012.61 1012.90 1013.11 1013.25 1013.37 1013.49 1013.65 1013.85 1014.07 1014.29 1014.49 1014.65 1014.75 1014.83 1014.89 1014.97 1015.09 1015.26 1015.47 1015.68 1015.89 1016.06
1014.18 1014.92 1015.19 1014.92 1014.15 1012.97 1011.57 1010.15 1008.90 1008.00 1007.51 1007.44 1007.72 1008.22 1008.81 1009.36 1009.80 1010.08 1010.25 1010.34 1010.44 1010.60 1010.86 1011.22 1011.63 1012.06 1012.44 1012.75 1012.97 1013.11 1013.22 1013.32 1013.45 1013.63 1013.85 1014.08 1014.30 1014.48 1014.60 1014.67 1014.72 1014.77 1014.86 1015.00 1015.19 1015.43 1015.68 1015.91 1016.09
1014.31 1014.83 1014.88 1014.44 1013.58 1012.41 1011.11 1009.85 1008.82 1008.14 1007.83 1007.88 1008.19 1008.66 1009.16 1009.61 1009.94 1010.16 1010.29 1010.41 1010.55 1010.78 1011.09 1011.47 1011.87 1012.25 1012.56 1012.79 1012.94 1013.04 1013.12 1013.24 1013.40 1013.61 1013.86 1014.11 1014.32 1014.48 1014.56 1014.59 1014.60 1014.62 1014.69 1014.82 1015.02 1015.27 1015.54 1015.78 1015.98
1014.18 1014.47 1014.33 1013.76 1012.86 1011.75 1010.59 1009.55 1008.74 1008.26 1008.10 1008.23 1008.54 1008.95 1009.35 1009.68 1009.92 1010.09 1010.23 1010.38 1010.59 1010.89 1011.25 1011.65 1012.03 1012.35 1012.59 1012.74 1012.83 1012.90 1012.98 1013.12 1013.32 1013.59 1013.88 1014.14 1014.35 1014.48 1014.52 1014.50 1014.45 1014.42 1014.45 1014.56 1014.75 1014.99 1015.26 1015.51 1015.72
1013.78 1013.87 1013.56 1012.91 1012.02 1011.02 1010.04 1009.22 1008.64 1008.35 1008.31 1008.48 1008.77 1009.09 1009.38 1009.61 1009.79 1009.93 1010.09 1010.31 1010.60 1010.96 1011.37 1011.77 1012.12 1012.38 1012.55 1012.63 1012.67 1012.71 1012.80 1012.98 1013.24 1013.55 1013.88 1014.16 1014.37 1014.46 1014.46 1014.37 1014.27 1014.18 1014.16 1014.23 1014.39 1014.62 1014.87 1015.12 1015.33
1013.20 1013.11 1012.68 1012.00 1011.17 1010.31 1009.55 1008.96 1008.59 1008.46 1008.52 1008.70 1008.94 1009.17 1009.36 1009.51 1009.64 1009.78 1009.99 1010.27 1010.63 1011.06 1011.49 1011.89 1012.20 1012.39 1012.48 1012.50 1012.49 1012.52 1012.63 1012.84 1013.14 1013.49 1013.85 1014.14 1014.33 1014.40 1014.35 1014.21 1014.05 1013.92 1013.86 1013.89 1014.01 1014.20 1014.43 1014.66 1014.86
1012.57 1012.34 1011.85 1011.18 1010.45 1009.77 1009.23 1008.86 1008.69 1008.70 1008.82 1009.00 1009.18 1009.33 1009.43 1009.52 1009.62 1009.77 1010.02 1010.36 1010.79 1011.24 1011.68 1012.05 1012.30 1012.42 1012.44 1012.40 1012.35 1012.37 1012.48 1012.71 1013.04 1013.41 1013.77 1014.06 1014.23 1014.27 1014.19 1014.02 1013.83 1013.67 1013.57 1013.57 1013.66 1013.81 1014.01 1014.21 1014.38
1012.06 1011.75 1011.23 1010.63 1010.04 1009.55 1009.22 1009.06 1009.06 1009.18 1009.34 1009.51 1009.62 1009.69 1009.72 1009.76 1009.83 1010.00 1010.28 1010.65 1011.10 1011.56 1011.97 1012.29 1012.47 1012.52 1012.47 1012.37 1012.29 1012.29 1012.40 1012.63 1012.96 1013.32 1013.66 1013.92 1014.07 1014.08 1013.98 1013.81 1013.61 1013.45 1013.35 1013.33 1013.39 1013.51 1013.66 1013.82 1013.95
1011.83 1011.48 1011.00 1010.49 1010.06 1009.77 1009.64 1009.66 1009.80 1009.99 1010.17 1010.30 1010.36 1010.35 1010.31 1010.29 1010.34 1010.50 1010.78 1011.16 1011.58 1012.00 1012.36 1012.60 1012.70 1012.67 1012.57 1012.43 1012.33 1012.31 1012.40 1012.61 1012.90 1013.22 1013.52 1013.73 1013.84 1013.84 1013.74 1013.59 1013.42 1013.29 1013.21 1013.20 1013.25 1013.34 1013.44 1013.53 1013.61
1011.94 1011.61 1011.20 1010.83 1010.57 1010.46 1010.51 1010.68 1010.90 1011.13 1011.30 1011.37 1011.35 1011.26 1011.15 1011.08 1011.09 1011.22 1011.47 1011.80 1012.16 1012.51 1012.78 1012.93 1012.95 1012.87 1012.72 1012.56 1012.44 1012.41 1012.49 1012.66 1012.90 1013.15 1013.37 1013.52 1013.59 1013.57 1013.48 1013.37 1013.26 1013.18 1013.15 1013.17 1013.22 1013.28 1013.33 1013.36 1013.36
1012.38 1012.10 1011.81 1011.59 1011.50 1011.56 1011.75 1012.02 1012.29 1012.50 1012.62 1012.61 1012.49 1012.32 1012.14 1012.00 1011.96 1012.04 1012.22 1012.47 1012.74 1012.98 1013.15 1013.21 1013.16 1013.04 1012.87 1012.72 1012.62 1012.59 1012.65 1012.77 1012.94 1013.11 1013.24 1013.32 1013.33 1013.29 1013.23 1013.16 1013.12 1013.11 1013.14 1013.20 1013.26 1013.30 1013.31 1013.27 1013.20
1013.01 1012.84 1012.70 1012.65 1012.73 1012.94 1013.23 1013.54 1013.80 1013.96 1013.97 1013.85 1013.63 1013.36 1013.09 1012.89 1012.78 1012.79 1012.89 1013.04 1013.20 1013.33 1013.39 1013.37 1013.28 1013.14 1012.99 1012.87 1012.80 1012.80 1012.85 1012.94 1013.04 1013.11 1013.15 1013.14 1013.10 1013.04 1012.98 1012.96 1012.98 1013.05 1013.14 1013.24 1013.32 1013.35 1013.32 1013.22 1013.08
1013.67 1013.65 1013.68 1013.82 1014.07 1014.40 1014.75 1015.06 1015.26 1015.31 1015.19 1014.93 1014.58 1014.19 1013.84 1013.56 1013.40 1013.33 1013.35 1013.40 1013.46 1013.48 1013.45 1013.37 1013.25 1013.13 1013.03 1012.98 1012.97 1013.01 1013.08 1013.14 1013.18 1013.17 1013.11 1013.02 1012.91 1012.82 1012.76 1012.78 1012.85 1012.97 1013.12 1013.25 1013.34 1013.36 1013.30 1013.17 1012.97
1014.18 1014.34 1014.57 1014.91 1015.32 1015.76 1016.15 1016.41 1016.51 1016.40 1016.11 1015.68 1015.19 1014.69 1014.25 1013.92 1013.70 1013.58 1013.53 1013.51 1013.48 1013.42 1013.32 1013.21 1013.09 1013.01 1012.98 1013.01 1013.09 1013.20 1013.30 1013.35 1013.34 1013.26 1013.12 1012.94 1012.77 1012.64 1012.57 1012.60 1012.70 1012.85 1013.03 1013.19 1013.29 1013.30 1013.23 1013.07 1012.85
1014.40 1014.77 1015.23 1015.78 1016.36 1016.89 1017.29 1017.48 1017.43 1017.14 1016.65 1016.05 1015.40 1014.79 1014.28 1013.91 1013.66 1013.52 1013.44 1013.37 1013.29 1013.18 1013.05 1012.93 1012.84 1012.81 1012.86 1012.98 1013.15 1013.33 1013.47 1013.54 1013.51 1013.37 1013.16 1012.91 1012.68 1012.50 1012.41 1012.42 1012.52 1012.69 1012.87 1013.03 1013.14 1013.15 1013.07 1012.92 1012.70
1014.29 1014.89 1015.60 1016.37 1017.12 1017.73 1018.12 1018.22 1018.02 1017.52 1016.83 1016.04 1015.24 1014.53 1013.97 1013.58 1013.34 1013.21 1013.14 1013.08 1012.99 1012.87 1012.73 1012.61 1012.55 1012.58 1012.71 1012.91 1013.16 1013.41 1013.59 1013.67 1013.63 1013.47 1013.21 1012.91 1012.62 1012.39 1012.26 1012.24 1012.32 1012.47 1012.64 1012.79 1012.89 1012.91 1012.85 1012.71 1012.52
1013.92 1014.75 1015.71 1016.71 1017.61 1018.30 1018.68 1018.68 1018.31 1017.63 1016.73 1015.76 1014.83 1014.04 1013.45 1013.07 1012.87 1012.80 1012.77 1012.75 1012.69 1012.59 1012.46 1012.36 1012.33 1012.40 1012.57 1012.83 1013.13 1013.42 1013.64 1013.74 1013.69 1013.51 1013.23 1012.89 1012.56 1012.29 1012.12 1012.06 1012.11 1012.22 1012.36 1012.50 1012.58 1012.61 1012.57 1012.47 1012.33
1013.41 1014.46 1015.66 1016.87 1017.92 1018.68 1019.04 1018.95 1018.44 1017.57 1016.49 1015.37 1014.32 1013.48 1012.88 1012.53 1012.40 1012.41 1012.47 1012.51 1012.50 1012.44 1012.34 1012.26 1012.23 1012.31 1012.49 1012.77 1013.08 1013.39 1013.62 1013.72 1013.68 1013.49 1013.20 1012.84 1012.49 1012.19 1011.99 1011.89 1011.89 1011.95 1012.06 1012.16 1012.24 1012.27 1012.26 1012.21 1012.13
1012.93 1014.17 1015.57 1016.95 1018.13 1018.95 1019.29 1019.12 1018.48 1017.46 1016.24 1014.99 1013.87 1012.99 1012.41 1012.11 1012.06 1012.16 1012.31 1012.44 1012.50 1012.48 1012.40 1012.32 1012.29 1012.34 1012.50 1012.74 1013.03 1013.31 1013.52 1013.62 1013.57 1013.38 1013.09 1012.74 1012.39 1012.08 1011.85 1011.71 1011.66 1011.69 1011.75 1011.82 1011.88 1011.93 1011.94 1011.94 1011.92
1012.61 1013.99 1015.53 1017.03 1018.30 1019.15 1019.47 1019.23 1018.49 1017.37 1016.05 1014.73 1013.57 1012.68 1012.13 1011.90 1011.93 1012.12 1012.36 1012.57 1012.69 1012.70 1012.64 1012.55 1012.48 1012.49 1012.58 1012.75 1012.97 1013.19 1013.36 1013.43 1013.37 1013.19 1012.92 1012.58 1012.24 1011.93 1011.69 1011.53 1011.44 1011.43 1011.45 1011.49 1011.53 1011.58 1011.61 1011.65 1011.69
1012.50 1013.95 1015.56 1017.13 1018.42 1019.27 1019.57 1019.28 1018.49 1017.32 1015.96 1014.61 1013.45 1012.60 1012.09 1011.92 1012.02 1012.29 1012.60 1012.86 1013.02 1013.06 1013.00 1012.88 1012.77 1012.69 1012.70 1012.78 1012.91 1013.05 1013.15 1013.18 1013.10 1012.92 1012.66 1012.35 1012.04 1011.74 1011.50 1011.33 1011.22 1011.17 1011.15 1011.16 1011.19 1011.23 1011.28 1011.35 1011.43
1012.59 1014.04 1015.64 1017.18 1018.45 1019.27 1019.54 1019.23 1018.43 1017.26 1015.93 1014.62 1013.51 1012.71 1012.26 1012.15 1012.30 1012.61 1012.96 1013.25 1013.43 1013.47 1013.39 1013.23 1013.06 1012.91 1012.81 1012.79 1012.82 1012.86 1012.89 1012.87 1012.77 1012.59 1012.35 1012.07 1011.78 1011.51 1011.28 1011.11 1010.98 1010.90 1010.85 1010.83 1010.84 1010.86 1010.92 1011.00 1011.11
1012.80 1014.17 1015.69 1017.14 1018.32 1019.07 1019.30 1019.00 1018.24 1017.14 1015.90 1014.69 1013.68 1012.96 1012.58 1012.51 1012.69 1013.01 1013.35 1013.64 1013.80 1013.82 1013.71 1013.51 1013.27 1013.05 1012.87 1012.75 1012.68 1012.64 1012.59 1012.52 1012.39 1012.21 1011.98 1011.73 1011.47 1011.23 1011.02 1010.84 1010.71 1010.61 1010.54 1010.49 1010.47 1010.47 1010.52 1010.60 1010.72
1013.02 1014.25 1015.61 1016.90 1017.95 1018.61 1018.81 1018.53 1017.85 1016.88 1015.79 1014.74 1013.87 1013.26 1012.96 1012.92 1013.10 1013.39 1013.69 1013.93 1014.05 1014.02 1013.87 1013.63 1013.35 1013.07 1012.83 1012.63 1012.48 1012.36 1012.25 1012.13 1011.98 1011.79 1011.57 1011.34 1011.11 1010.89 1010.70 1010.53 1010.39 1010.27 1010.18 1010.10 1010.05 1010.04 1010.07 1010.14 1010.26
1013.16 1014.21 1015.36 1016.45 1017.33 1017.88 1018.05 1017.82 1017.25 1016.46 1015.57 1014.72 1014.02 1013.55 1013.32 1013.31 1013.46 1013.69 1013.92 1014.07 1014.12 1014.04 1013.84 1013.56 1013.25 1012.94 1012.65 1012.41 1012.21 1012.04 1011.88 1011.72 1011.54 1011.34 1011.13 1010.91 1010.70 1010.50 1010.32 1010.16 1010.01 1009.88 1009.76 1009.66 1009.59 1009.55 1009.55 1009.61 1009.71
Thickness
5832 5828 5824 5813 5793 5781 5784 5810 5831 5840 5849 5863 5870 5864 5852 5843 5832 5821 5845 5851 5846 5838 5833 5829 5827 5824 5820 5816 5813 5809 5805 5802 5799 5797 5794 5791 5789 5787 5784 5782 5780 5778 5776 5774 5772 5770 5769 5767 5765
5832 5827 5817 5801 5785 5774 5789 5820 5830 5841 5854 5867 5869 5864 5854 5846 5849 5844 5845 5846 5844 5838 5833 5829 5826 5823 5819 5815 5812 5808 5805 5801 5798 5795 5793 5790 5788 5785 5783 5781 5779 5777 5775 5773 5771 5770 5768 5766 5765
5833 5828 5805 5790 5784 5784 5801 5829 5839 5852 5861 5864 5860 5861 5853 5846 5849 5846 5847 5845 5840 5836 5832 5828 5824 5821 5818 5814 5811 5807 5804 5800 5797 5794 5791 5789 5786 5784 5782 5779 5777 5775 5774 5772 5770 5768 5766 5765 5763
5829 5813 5800 5786 5786 5807 5820 5835 5847 5849 5855 5862 5858 5847 5853 5862 5857 5850 5847 5843 5837 5832 5829 5826 5822 5819 5815 5812 5809 5806 5802 5799 5796 5793 5790 5787 5785 5782 5780 5778 5776 5774 5772 5770 5768 5766 5765 5763 5762
5824 5803 5785 5780 5794 5820 5837 5849 5853 5847 5848 5853 5854 5838 5839 5855 5859 5850 5843 5838 5834 5829 5826 5823 5820 5816 5813 5810 5807 5803 5800 5797 5794 5791 5789 5786 5783 5781 5778 5776 5774 5772 5770 5768 5766 5764 5762 5761 5760
5807 5797 5777 5776 5799 5824 5839 5853 5853 5847 5847 5849 5848 5837 5835 5848 5847 5843 5840 5834 5832 5828 5823 5820 5816 5813 5810 5807 5803 5800 5797 5794 5792 5789 5786 5784 5781 5778 5776 5773 5771 5769 5767 5766 5764 5762 5760 5758 5758
5800 5790 5782 5790 5799 5814 5837 5850 5848 5843 5841 5848 5852 5831 5831 5839 5844 5842 5837 5832 5827 5824 5820 5816 5813 5810 5807 5803 5800 5797 5794 5791 5789 5786 5784 5781 5778 5775 5773 5771 5768 5766 5765 5763 5761 5759 5757 5756 5755
5812 5793 5785 5788 5795 5807 5835 5845 5849 5844 5841 5855 5853 5830 5824 5836 5843 5840 5832 5826 5821 5817 5815 5813 5810 5807 5804 5800 5797 5794 5791 5788 5785 5782 5780 5777 5775 5772 5770 5768 5766 5763 5762 5760 5758 5757 5755 5753 5752
5817 5783 5772 5785 5795 5809 5831 5834 5843 5851 5845 5846 5848 5842 5842 5843 5839 5832 5823 5816 5811 5810 5809 5808 5805 5803 5799 5796 5793 5790 5787 5784 5782 5779 5777 5774 5771 5769 5767 5764 5762 5760 5759 5757 5755 5754 5752 5750 5749
5798 5772 5783 5804 5812 5814 5825 5829 5833 5831 5827 5827 5832 5838 5842 5837 5830 5823 5817 5808 5804 5802 5802 5802 5800 5798 5795 5793 5790 5786 5783 5781 5778 5776 5774 5771 5768 5766 5763 5761 5759 5757 5756 5755 5753 5751 5749 5747 5745
5795 5786 5802 5813 5821 5820 5819 5824 5831 5820 5807 5814 5817 5822 5826 5824 5819 5813 5810 5806 5802 5801 5800 5798 5796 5794 5791 5789 5785 5782 5779 5777 5774 5771 5769 5767 5764 5761 5759 5757 5755 5754 5753 5751 5750 5748 5745 5743 5741
5792 5799 5809 5815 5823 5820 5818 5820 5816 5814 5810 5820 5820 5818 5815 5809 5806 5804 5799 5798 5797 5795 5795 5794 5793 5790 5786 5784 5781 5778 5775 5773 5770 5767 5764 5761 5759 5756 5754 5752 5751 5750 5749 5748 5746 5744 5742 5740 5738
5789 5796 5809 5817 5819 5819 5818 5812 5808 5804 5812 5815 5813 5809 5803 5798 5796 5795 5795 5793 5792 5790 5790 5789 5788 5784 5781 5777 5775 5773 5770 5768 5766 5762 5759 5757 5753 5750 5748 5747 5746 5746 5744 5743 5742 5740 5739 5737 5735
5791 5797 5803 5810 5813 5816 5809 5801 5800 5791 5802 5802 5798 5794 5792 5790 5789 5788 5785 5783 5783 5784 5783 5782 5780 5778 5775 5771 5768 5767 5765 5763 5760 5757 5753 5751 5748 5745 5742 5741 5741 5740 5738 5737 5736 5735 5734 5733 5732
5795 5786 5790 5798 5804 5806 5803 5780 5779 5785 5792 5788 5786 5784 5782 5781 5781 5779 5776 5775 5776 5775 5775 5775 5773 5770 5767 5764 5762 5759 5758 5755 5753 5750 5748 5745 5742 5739 5737 5734 5733 5733 5732 5731 5729 5729 5729 5728 5728
5779 5767 5760 5782 5793 5797 5784 5751 5766 5779 5780 5774 5775 5775 5772 5771 5771 5770 5770 5769 5769 5768 5767 5767 5768 5763 5760 5757 5754 5752 5749 5747 5745 5743 5741 5738 5736 5733 5731 5727 5726 5725 5724 5724 5722 5721 5721 5721 5722
5751 5742 5748 5767 5784 5785 5769 5746 5758 5769 5771 5765 5766 5767 5765 5763 5762 5762 5763 5762 5761 5760 5759 5758 5758 5756 5753 5751 5748 5746 5742 5739 5737 5735 5732 5731 5729 5726 5723 5720 5719 5718 5717 5716 5715 5715 5714 5714 5715
5735 5740 5746 5752 5769 5770 5754 5743 5749 5756 5757 5755 5756 5759 5759 5757 5756 5758 5758 5758 5756 5754 5752 5751 5749 5747 5746 5743 5740 5736 5733 5730 5728 5726 5725 5723 5721 5718 5715 5713 5712 5711 5709 5708 5708 5707 5708 5709 5709
5755 5749 5745 5751 5764 5754 5741 5736 5739 5743 5744 5744 5745 5748 5750 5752 5755 5756 5755 5753 5751 5747 5745 5743 5741 5739 5737 5733 5728 5724 5720 5719 5718 5717 5716 5714 5712 5709 5707 5705 5703 5702 5701 5700 5700 5700 5700 5701 5703
5756 5744 5740 5745 5757 5748 5734 5729 5732 5732 5733 5735 5737 5739 5742 5744 5748 5750 5749 5748 5745 5742 5740 5737 5735 5733 5730 5726 5722 5718 5714 5711 5709 5707 5706 5704 5702 5700 5699 5697 5695 5695 5694 5693 5692 5692 5692 5693 5696
5751 5743 5742 5739 5745 5743 5732 5715 5718 5725 5730 5734 5739 5739 5740 5740 5742 5745 5745 5743 5742 5739 5737 5735 5731 5728 5724 5721 5716 5711 5705 5701 5697 5694 5693 5693 5691 5690 5689 5688 5687 5686 5685 5684 5684 5684 5683 5683 5686
5744 5758 5754 5745 5728 5713 5718 5696 5705 5713 5719 5727 5732 5734 5736 5740 5742 5742 5742 5740 5739 5737 5736 5732 5727 5722 5718 5714 5707 5700 5693 5688 5686 5683 5683 5682 5682 5681 5680 5679 5679 5678 5677 5676 5676 5677 5676 5676 5676
5754 5762 5751 5739 5721 5706 5706 5695 5699 5709 5711 5721 5727 5732 5736 5739 5740 5740 5741 5739 5738 5735 5731 5726 5721 5715 5711 5706 5700 5692 5686 5682 5678 5675 5673 5672 5672 5671 5670 5670 5670 5669 5668 5668 5668 5668 5668 5669 5669
5764 5749 5736 5723 5711 5691 5696 5691 5693 5703 5711 5720 5727 5732 5735 5738 5739 5738 5738 5735 5731 5728 5723 5718 5712 5706 5701 5696 5690 5684 5678 5673 5669 5666 5662 5661 5660 5660 5660 5660 5660 5660 5659 5659 5659 5659 5659 5660 5661
5756 5728 5705 5697 5685 5684 5697 5693 5697 5718 5725 5726 5727 5731 5734 5736 5735 5732 5729 5725 5721 5717 5713 5708 5701 5695 5690 5685 5680 5675 5670 5665 5660 5657 5654 5651 5650 5649 5650 5650 5650 5650 5650 5650 5650 5649 5650 5651 5652
5756 5739 5708 5693 5683 5684 5692 5688 5705 5728 5733 5734 5733 5733 5732 5730 5727 5724 5721 5717 5713 5709 5703 5697 5690 5684 5680 5675 5670 5666 5661 5656 5652 5649 5646 5644 5642 5642 5642 5641 5640 5640 5640 5641 5641 5640 5641 5642 5643
5756 5743 5739 5709 5693 5680 5685 5696 5715 5730 5730 5730 5729 5727 5724 5722 5721 5717 5713 5709 5704 5699 5693 5688 5681 5676 5671 5667 5662 5657 5653 5649 5645 5642 5639 5637 5635 5634 5634 5632 5631 5631 5630 5631 5631 5630 5631 5632 5634
5769 5755 5729 5707 5686 5678 5684 5689 5694 5715 5719 5722 5721 5719 5718 5717 5713 5710 5706 5701 5697 5691 5685 5680 5674 5668 5664 5659 5654 5651 5647 5642 5639 5635 5631 5629 5627 5625 5623 5622 5621 5620 5619 5619 5619 5620 5621 5622 5624
5758 5752 5733 5712 5703 5683 5674 5685 5720 5719 5719 5717 5717 5716 5713 5710 5706 5703 5700 5696 5691 5685 5679 5673 5667 5661 5656 5652 5647 5642 5638 5635 5630 5626 5623 5620 5618 5616 5613 5612 5610 5609 5607 5607 5607 5608 5610 5611 5613
5761 5753 5736 5712 5704 5694 5680 5687 5730 5723 5720 5717 5715 5714 5712 5708 5703 5699 5695 5690 5684 5678 5673 5667 5661 5655 5650 5645 5640 5635 5630 5626 5621 5617 5614 5611 5608 5605 5603 5601 5599 5597 5596 5595 5594 5595 5597 5599 5601